Regional Weather Roundup
Issued by NWS Sterling, VA

Home | Current Version | Previous Version | Graphics & Text | Print | Product List | Glossary On
Versions: 1 2 3 4 5 6 7 8 9 10 11 12 13 14 15 16 17 18 19 20 21 22 23 24 25 26 27 28
000
ASUS41 KLWX 271011
RWRLWX

REGIONAL WEATHER ROUNDUP
NATIONAL WEATHER SERVICE BALTIMORE MD/WASHINGTON DC
500 AM EST MON FEB 27 2017

Note: "FAIR" indicates few or no clouds below 12,000 feet
with no significant weather and/or obstructions to visibility.
 TC=TEMPERATURE CELSIUS

 * =Non NWS site. Station does not report precipitation (e.g. rain,
    snow, etc.), thunder, or fog.

DCZ001-MDZ009-015-VAZ040>042-051-053>054-271100-
WASHINGTON METRO

CITY           SKY/WX    TMP DP  RH WIND       PRES   REMARKS
WASHINGTON NAT CLEAR     38  28  67 CALM      30.37R
DULLES         MOCLDY    26  20  77 CALM      30.35R
ANDREWS AFB    CLEAR     33  29  83 S3        30.35R
FT BELVOIR     MOCLDY    27  23  86 CALM      30.37R
QUANTICO       CLOUDY    33  30  88 NW6       30.38R
COLLEGE PARK*  PTCLDY    27  23  86 CALM      30.37R
LEESBURG*      CLOUDY    30  25  80 MISG      30.36S
MANASSAS*      CLOUDY    26  24  92 CALM      30.37R
GAITHERSBURG*  MOCLDY    30  21  69 SE6       30.38S

$$

MDZ006>007-011-014-271100-
BALTIMORE METRO

CITY           SKY/WX    TMP DP  RH WIND       PRES   REMARKS
BWI AIRPORT    PTCLDY    25  22  88 W3        30.37R
MD SCIENCE CTR   N/A     36  22  56 MISG      30.37R
MARTIN STATE   CLEAR     30  28  93 CALM      30.39S
ANNAPOLIS      CLEAR     36  32  85 CALM      30.37R
FORT MEADE*    PTCLDY    25  23  93 CALM      30.40R

$$

MDZ012-015-019>023-271100-
MARYLAND EASTERN SHORE

CITY           SKY/WX    TMP DP  RH WIND       PRES   REMARKS
OCEAN CITY     CLEAR     28  24  85 CALM      30.41R
SALISBURY      CLEAR     27  24  89 E3        30.39R
BAY BRIDGE AP* CLEAR     36  32  87 SE3       30.38S
CAMBRIDGE*     CLEAR     28  27  93 SE5       30.39R
EASTON*        CLEAR     32  27  83 NE5       30.42R

$$

MDZ017>025-271100-
SOUTHERN MARYLAND

CITY           SKY/WX    TMP DP  RH WIND       PRES   REMARKS
PATUXENT RIVER CLEAR     39  37  92 S5        30.38R
ST INIGOES     CLEAR     34  32  92 CALM      30.38R
LEONARDTOWN*   CLEAR     32  32 100 CALM      30.39R

$$

MDZ003>005-271100-
NORTH CENTRAL MARYLAND

CITY           SKY/WX    TMP DP  RH WIND       PRES   REMARKS
FREDERICK*     MOCLDY    27  27 100 CALM      30.39R
HAGERSTOWN APT CLOUDY    34  18  52 SE3       30.32R
WESTMINSTER*   CLOUDY    36  25  64 S3        30.33R

$$

MDZ501>502-271100-
WESTERN MARYLAND

CITY           SKY/WX    TMP DP  RH WIND       PRES   REMARKS
OAKLAND*       CLOUDY    32  10  40 SW6       30.21S
CUMBERLAND*    CLOUDY    27  21  80 CALM      30.35S

$$

VAZ025>031-271100-
SHENANDOAH VALLEY

CITY           SKY/WX    TMP DP  RH WIND       PRES   REMARKS
WINCHESTER*    CLOUDY    30  18  59 W3        30.32R
FRONT ROYAL*   CLOUDY    28  19  69 CALM      30.31S
LURAY*         CLOUDY    30  27  86 CALM      30.31S
NEW MARKET*    CLOUDY    28  21  72 CALM      30.32R
STAUNTON*      CLEAR     21  18  86 CALM      30.35R
WAYNESBORO*    PTCLDY    27  14  58 CALM      30.31R

$$

WVZ021-048>050-054>055-271100-
EASTERN WEST VIRGINIA PANHANDLE

CITY           SKY/WX    TMP DP  RH WIND       PRES   REMARKS
MARTINSBURG    CLOUDY    28  19  69 CALM      30.32R
PETERSBURG*    PTCLDY    25  22  88 CALM      30.32S

$$

VAZ036>039-050-271100-
CENTRAL FOOTHILLS

CITY           SKY/WX    TMP DP  RH WIND       PRES   REMARKS
CHARLOTTESVILL CLEAR     28  18  66 CALM      30.34R
CULPEPER*      CLOUDY    29  24  81 CALM      30.36S
ORANGE*        CLEAR     28  23  80 CALM      30.36S
GORDONSVILLE*  CLEAR     26  23  89 CALM      30.35R
WARRENTON*     CLOUDY    28  23  79 CALM      30.35R

$$

VAZ055>057-271100-
NORTH AND CENTRAL PIEDMONT

CITY           SKY/WX    TMP DP  RH WIND       PRES   REMARKS
FREDERICKSBRG* PTCLDY    31  27  85 CALM      30.35F
STAFFORD*      CLOUDY    27  27  98 CALM      30.40S

$$

NCZ024-NYZ072-PAZ021-071-VAZ022-071-271100-
OTHER REGIONAL OBSERVATIONS

CITY           SKY/WX    TMP DP  RH WIND       PRES   REMARKS
NEW YORK CITY  CLEAR     36  17  46 MISG      30.36R
PHILADELPHIA   PTCLDY    33  24  69 CALM      30.39R
PITTSBURGH     CLOUDY    34  15  46 S3        30.23R
ROANOKE        CLOUDY    32  22  66 CALM      30.35R
RICHMOND       CLEAR     31  28  89 CALM      30.37R
RALEIGH        PTCLDY    38  22  52 CALM      30.35R

$$

ANZ530>537-271100-
MARINE OBSERVATIONS

STATION/POSITION TIME  TEMP    WIND        PRES
                       AIR SEA DIR/SP/G
                 (UTC) (F)     (DEG/KT/KT) (MB)
THOMAS PT LIGHT  1000   44 44  170/ 12/ 13   N/A
BALT KEY BRIDGE  0942   37      CALM  /  2 1028.5R
COVE POINT       0942   43     190/ 12/ 13 1029.1R
LEWISETTA        0942   40 48  210/  4/  5 1028.5R
SOLOMONS ISLAND  0942   40 45  180/  3/  4   N/A
PINEY POINT      0948          190/  7/  8   N/A

$$





USA.gov is the U.S. government's official web portal to all federal, state and local government web resources and services.